Terminal Aerodrome Forecast
Issued by NWS Pittsburgh, PA

Current Version | Previous Version | Graphics & Text | Print | Product List | Glossary On
Versions: 1 2 3 4 5 6 7 8 9 10 11 12 13 14 15 16 17 18 19 20 21 22 23 24 25 26 27 28
000
FTUS41 KPBZ 251508 AAB
TAFPIT
TAF AMD
KPIT 251508Z 2515/2618 12005KT P6SM OVC035
     FM252200 09005KT P6SM -SHRA OVC035
     FM260400 VRB05KT P6SM OVC080
     FM260800 VRB05KT P6SM SCT080=

USA.gov is the U.S. government's official web portal to all federal, state and local government web resources and services.